User: anonymous   Login
Location: Napier
(39.4830°S, 176.9170°E)
Time: 15:06:52
(UTC+13:00)
Language:

Cosmos 1844 Rocket - Orbit

View from above orbital plane
View from above orbital plane
View from above satellite
View from above satellite

Ground track
Ground track

The orbit data is extracted from the following two-line orbital elements,

1 17974U 87041B   19293.57270856  .00000144  00000-0  94893-4 0  9998
2 17974  71.0069 267.6033 0013695 176.9966 306.7346 14.17255700677874
Epoch (UTC): 20 October 2019 13:44:42
Eccentricity: 0.0013695
inclination: 71.0069°
perigee height: 825 km
apogee height: 844 km
right ascension of ascending node: 267.6033°
argument of perigee: 176.9966°
revolutions per day: 14.17255700
mean anomaly at epoch: 306.7346°
orbit number at epoch: 67787

The dashed part of the orbit path shows where the satellite is in the earth's shadow,  

DLR